Location: Unspecified
(38.7273°N, 77.0677°W)
Time: 02:33:36
(UTC-04:00)

CAS-4B - Pass Details

Date: 28 September 2021
Orbit: 529 x 541 km, 43.0° (Epoch: 18 October)

Event Time Altitude Azimuth Distance (km) Brightness Sun altitude
Exits shadow 04:01:15 14° 64° (ENE) 1,524 ? -34.7°
Drops below altitude 10° 04:01:54 10° 67° (ENE) 1,770 ? -34.6°
Sets 04:04:11 0° 72° (ENE) 2,660 ? -34.2°
